• In Uzbekistan
  • List of Countries
  • For 7 days
  • Water Temperature
  • Satellite Maps
  • Weather Map
  • Weather Widgets
  • user-avatar
    Login

    Hourly Weather Usug

    Today, 14 December, Friday

    Time Temperature Precipitation Wind Pressure Humidity
    00:00 -7°C° 0 mm 2 mps 606 mmHg 63%
    01:00 -7°C° 0 mm 2 mps 606 mmHg 63%
    02:00 -7°C° 0 mm 2 mps 606 mmHg 64%
    03:00 -7°C° 0 mm 2 mps 606 mmHg 62%
    04:00 -7°C° 0 mm 2 mps 606 mmHg 62%
    05:00 -8°C° 0 mm 2 mps 606 mmHg 62%
    06:00 -8°C° 0 mm 2 mps 606 mmHg 62%
    07:00 -7°C° 0 mm 2 mps 607 mmHg 60%
    08:00 -6°C° 0 mm 2 mps 607 mmHg 57%
    09:00 -5°C° 0 mm 2 mps 608 mmHg 54%
    10:00 -5°C° 0 mm 2 mps 608 mmHg 53%
    11:00 -4°C° 0 mm 2 mps 608 mmHg 53%
    12:00 -3°C° 0 mm 2 mps 608 mmHg 52%
    13:00 -4°C° 0 mm 2 mps 608 mmHg 55%
    14:00 -4°C° 0 mm 2 mps 608 mmHg 58%
    15:00 -5°C° 0 mm 2 mps 607 mmHg 61%
    16:00 -5°C° 0 mm 2 mps 607 mmHg 63%
    17:00 -6°C° 0 mm 2 mps 607 mmHg 65%
    18:00 -7°C° 0 mm 2 mps 607 mmHg 68%
    19:00 -7°C° 0 mm 2 mps 607 mmHg 68%
    20:00 -7°C° 0 mm 2 mps 607 mmHg 69%
    21:00 -6°C° 0 mm 1 mps 607 mmHg 69%
    22:00 -7°C° 0 mm 1 mps 607 mmHg 68%
    23:00 -8°C° 0 mm 2 mps 607 mmHg 66%

    Tomorrow, 15 December, Saturday

    Time Temperature Precipitation Wind Pressure Humidity
    00:00 -8°C° 0 mm 2 mps 607 mmHg 65%
    01:00 -8°C° 0 mm 2 mps 607 mmHg 64%
    02:00 -8°C° 0 mm 2 mps 607 mmHg 62%
    03:00 -8°C° 0 mm 2 mps 607 mmHg 61%
    04:00 -8°C° 0 mm 2 mps 607 mmHg 60%
    05:00 -8°C° 0 mm 2 mps 607 mmHg 59%
    06:00 -8°C° 0 mm 2 mps 607 mmHg 58%
    07:00 -7°C° 0 mm 2 mps 608 mmHg 56%
    08:00 -4°C° 0 mm 1 mps 609 mmHg 53%
    09:00 -3°C° 0 mm 1 mps 609 mmHg 51%
    10:00 -4°C° 0 mm 2 mps 609 mmHg 51%
    11:00 -3°C° 0 mm 2 mps 610 mmHg 50%
    12:00 -2°C° 0 mm 2 mps 610 mmHg 50%
    13:00 -2°C° 0 mm 2 mps 610 mmHg 53%
    14:00 -2°C° 0 mm 2 mps 609 mmHg 56%
    15:00 -3°C° 0 mm 2 mps 609 mmHg 59%
    16:00 -4°C° 0 mm 2 mps 609 mmHg 61%
    17:00 -4°C° 0 mm 2 mps 609 mmHg 63%
    18:00 -5°C° 0 mm 2 mps 609 mmHg 65%
    19:00 -5°C° 0 mm 2 mps 608 mmHg 65%
    20:00 -5°C° 0 mm 2 mps 608 mmHg 64%
    21:00 -5°C° 0 mm 2 mps 608 mmHg 63%
    22:00 -5°C° 0 mm 2 mps 608 mmHg 64%
    23:00 -5°C° 0 mm 2 mps 608 mmHg 65%

    Day after tomorrow, 16 December, Sunday

    Time Temperature Precipitation Wind Pressure Humidity
    00:00 -5°C° 0 mm 2 mps 607 mmHg 65%
    01:00 -5°C° 0 mm 2 mps 607 mmHg 66%
    02:00 -5°C° 0 mm 2 mps 607 mmHg 66%
    03:00 -5°C° 0 mm 2 mps 607 mmHg 67%
    04:00 -5°C° 0 mm 2 mps 607 mmHg 68%
    05:00 -5°C° 0 mm 2 mps 607 mmHg 69%
    06:00 -4°C° 0 mm 1 mps 607 mmHg 70%
    07:00 -3°C° 0 mm 1 mps 608 mmHg 68%
    08:00 -2°C° 0 mm 1 mps 608 mmHg 66%
    09:00 -1°C° 0 mm 1 mps 609 mmHg 64%
    10:00 0°C° 0 mm 1 mps 609 mmHg 62%
    11:00 0°C° 0 mm 1 mps 609 mmHg 61%
    12:00 -1°C° 0 mm 2 mps 610 mmHg 60%
    13:00 -1°C° 0 mm 2 mps 609 mmHg 63%
    14:00 -2°C° 0 mm 2 mps 609 mmHg 66%
    15:00 -2°C° 0 mm 2 mps 609 mmHg 70%
    16:00 -3°C° 0 mm 2 mps 609 mmHg 72%
    17:00 -4°C° 0 mm 2 mps 609 mmHg 75%
    18:00 -3°C° 0 mm 1 mps 609 mmHg 78%
    19:00 -5°C° 0 mm 2 mps 609 mmHg 77%
    20:00 -5°C° 0 mm 2 mps 609 mmHg 75%
    21:00 -5°C° 0 mm 2 mps 609 mmHg 74%
    22:00 -5°C° 0 mm 2 mps 609 mmHg 73%
    23:00 -5°C° 0 mm 2 mps 609 mmHg 73%

    17 December, Monday

    Time Temperature Precipitation Wind Pressure Humidity
    00:00 -5°C° 0 mm 2 mps 609 mmHg 72%
    01:00 -6°C° 0 mm 2 mps 609 mmHg 72%
    02:00 -6°C° 0 mm 2 mps 609 mmHg 72%
    03:00 -6°C° 0 mm 2 mps 609 mmHg 72%
    04:00 -6°C° 0 mm 2 mps 609 mmHg 72%
    05:00 -4°C° 0 mm 1 mps 609 mmHg 73%
    06:00 -4°C° 0 mm 1 mps 608 mmHg 73%
    07:00 -3°C° 0 mm 1 mps 609 mmHg 72%
    08:00 -3°C° 0 mm 1 mps 609 mmHg 71%
    09:00 -2°C° 0 mm 1 mps 609 mmHg 70%
    10:00 -1°C° 0 mm 1 mps 609 mmHg 70%
    11:00 -3°C° 0 mm 2 mps 609 mmHg 69%
    12:00 -2°C° 0 mm 2 mps 609 mmHg 69%
    13:00 -2°C° 0 mm 2 mps 609 mmHg 71%
    14:00 -3°C° 0 mm 2 mps 609 mmHg 74%
    15:00 -3°C° 0 mm 2 mps 608 mmHg 76%
    16:00 -2°C° 0 mm 1 mps 608 mmHg 78%
    17:00 -2°C° 0 mm 1 mps 608 mmHg 80%
    18:00 -3°C° 0 mm 1 mps 608 mmHg 82%
    19:00 -3°C° 0 mm 1 mps 608 mmHg 81%
    20:00 -3°C° 0 mm 1 mps 608 mmHg 80%
    21:00 -3°C° 0 mm 1 mps 608 mmHg 79%
    22:00 -3°C° 0 mm 1 mps 608 mmHg 78%
    23:00 -3°C° 0 mm 1 mps 607 mmHg 78%

    18 December, Tuesday

    Time Temperature Precipitation Wind Pressure Humidity
    00:00 -3°C° 0 mm 1 mps 607 mmHg 77%
    01:00 -3°C° 0 mm 1 mps 607 mmHg 78%
    02:00 -3°C° 0 mm 1 mps 607 mmHg 78%
    03:00 -3°C° 0 mm 1 mps 607 mmHg 79%
    04:00 -3°C° 0.1 mm 1 mps 607 mmHg 79%
    05:00 -3°C° 0.1 mm 1 mps 607 mmHg 80%
    06:00 -3°C° 0.1 mm 1 mps 607 mmHg 80%
    07:00 -3°C° 0.2 mm 1 mps 607 mmHg 81%
    08:00 -3°C° 0.2 mm 1 mps 607 mmHg 81%
    09:00 -3°C° 0.2 mm 1 mps 607 mmHg 82%
    10:00 -3°C° 0.1 mm 1 mps 607 mmHg 81%
    11:00 -2°C° 0.1 mm 1 mps 607 mmHg 80%
    12:00 -2°C° 0.1 mm 1 mps 607 mmHg 79%
    13:00 -2°C° 0.1 mm 1 mps 607 mmHg 81%
    14:00 -2°C° 0.1 mm 1 mps 607 mmHg 82%
    15:00 -2°C° 0.1 mm 1 mps 607 mmHg 84%
    16:00 -3°C° 0.1 mm 1 mps 607 mmHg 86%
    17:00 -3°C° 0.1 mm 1 mps 607 mmHg 87%
    18:00 -4°C° 0.1 mm 1 mps 607 mmHg 88%
    19:00 -4°C° 0.1 mm 1 mps 607 mmHg 88%
    20:00 -5°C° 0.1 mm 0 mps 607 mmHg 87%
    21:00 -5°C° 0.1 mm 0 mps 608 mmHg 87%
    22:00 -5°C° 0.1 mm 0 mps 608 mmHg 86%
    23:00 -5°C° 0.1 mm 0 mps 607 mmHg 86%

    19 December, Wednesday

    Time Temperature Precipitation Wind Pressure Humidity
    00:00 -4°C° 0.1 mm 1 mps 607 mmHg 85%
    01:00 -4°C° 0 mm 1 mps 607 mmHg 84%
    02:00 -4°C° 0 mm 1 mps 607 mmHg 84%
    03:00 -4°C° 0 mm 1 mps 607 mmHg 84%
    04:00 -6°C° 0 mm 1 mps 607 mmHg 83%
    05:00 -6°C° 0 mm 1 mps 608 mmHg 82%
    06:00 -6°C° 0 mm 1 mps 608 mmHg 82%
    07:00 -4°C° 0 mm 1 mps 608 mmHg 79%
    08:00 -4°C° 0 mm 1 mps 609 mmHg 76%
    09:00 -3°C° 0 mm 1 mps 609 mmHg 73%
    10:00 -2°C° 0 mm 1 mps 609 mmHg 71%
    11:00 -2°C° 0 mm 1 mps 609 mmHg 70%
    12:00 -1°C° 0 mm 1 mps 609 mmHg 68%
    13:00 -1°C° 0 mm 1 mps 609 mmHg 70%
    14:00 -1°C° 0 mm 1 mps 609 mmHg 73%
    15:00 -2°C° 0 mm 1 mps 609 mmHg 75%
    16:00 -3°C° 0 mm 1 mps 609 mmHg 77%
    17:00 -3°C° 0 mm 1 mps 609 mmHg 78%
    18:00 -4°C° 0 mm 1 mps 608 mmHg 80%
    19:00 -4°C° 0 mm 1 mps 608 mmHg 78%
    20:00 -6°C° 0 mm 1 mps 609 mmHg 75%
    21:00 -6°C° 0 mm 1 mps 609 mmHg 73%
    22:00 -6°C° 0 mm 1 mps 609 mmHg 71%
    23:00 -6°C° 0 mm 1 mps 608 mmHg 70%
    Show more